Home   Weather   Hartford   Past weeks
Flag for USA

Past Weather in Hartford, Wisconsin, USA — Yesterday and Last 2 Weeks

Now
77 °F

Sunny.


Feels Like: 79 °F
Forecast: 73 / 51 °F
Wind: No wind

Location: West Bend Municipal Airport

Current Time: Jun 18, 2019 at 4:02:26 pm

Latest Report: Jun 18, 2019 at 3:15 pm


Visibility: 10 mi

Pressure: 29.89 "Hg

Humidity: 51%

Dew Point: 57 °F

Location of HartfordLocation

Past Weather in Hartford — Graph

°F

Hartford Temperature Yesterday

Maximum temperature yesterday: 70 °F (at 3:35 pm)
Minimum temperature yesterday: 52 °F (at 10:55 pm)
Average temperature yesterday: 59 °F

High & Low Weather Summary for the Past Weeks

 TemperatureHumidityPressure
High79 °F (Jun 8, 3:15 pm)100% (Jun 5, 12:55 am)30.17 "Hg (Jun 5, 12:55 am)
Low45 °F (Jun 11, 2:55 am)24% (Jun 11, 1:55 pm)29.66 "Hg (Jun 5, 1:55 am)
Average61 °F72%29.94 "Hg
* Reported Jun 3 2:15 pm — Jun 18 2:55 pm, Hartford. Weather by CustomWeather, © 2019

Note: Actual official high and low records may vary slightly from our data, if they occured in-between our weather recording intervals... More about our weather records

Advertising

Hartford Weather History for the Previous 24 Hours

Scroll right to see more
 ConditionsComfort  
Time TempWeatherWind HumidityBarometerVisibility
2:55 pm
Tue, Jun 18
77 °FSunny.No wind47%29.90 "Hg10 mi
2:15 pm77 °FPartly sunny.8 mph47%29.91 "Hg10 mi
1:55 pm75 °FBroken clouds.No wind50%29.91 "Hg10 mi
1:15 pm77 °FPartly sunny.7 mph54%29.92 "Hg10 mi
12:55 pm77 °FPartly sunny.5 mph47%29.93 "Hg10 mi
12:15 pm73 °FScattered clouds.No wind53%29.94 "Hg10 mi
11:55 am73 °FScattered clouds.No wind57%29.94 "Hg10 mi
11:15 am73 °FSunny.3 mph61%29.95 "Hg10 mi
10:55 am72 °FSunny.3 mph69%29.95 "Hg10 mi
10:15 am70 °FSunny.No wind73%29.96 "Hg10 mi
9:55 am68 °FSunny.3 mph78%29.96 "Hg10 mi
9:35 am68 °FSunny.No wind78%29.96 "Hg10 mi
9:15 am66 °FScattered clouds.No wind83%29.95 "Hg10 mi
8:55 am64 °FOvercast.No wind83%29.96 "Hg10 mi
8:15 am61 °FPartly sunny.No wind94%29.97 "Hg10 mi
7:55 am61 °FOvercast.No wind88%29.97 "Hg10 mi
7:15 am57 °FScattered clouds.No wind94%29.97 "Hg10 mi
6:55 am55 °FSunny.No wind94%29.97 "Hg7 mi
6:35 am54 °FSunny.No wind100%29.98 "Hg7 mi
6:15 am52 °FFog.No wind100%29.98 "Hg5 mi
5:55 am52 °FSunny.No wind100%29.98 "Hg7 mi
5:15 am52 °FSunny.No wind100%29.98 "Hg7 mi
4:55 am52 °FClear.No wind100%29.98 "Hg10 mi
4:15 am50 °FClear.No wind100%29.98 "Hg10 mi
3:55 am50 °FClear.No wind100%29.98 "Hg10 mi
3:35 am50 °FClear.No wind100%29.98 "Hg10 mi
3:15 am50 °FClear.No wind100%29.99 "Hg10 mi
2:55 am50 °FClear.No wind100%29.99 "Hg7 mi
2:35 am50 °FClear.No wind100%30.00 "Hg10 mi
2:15 am50 °FClear.No wind100%30.00 "Hg10 mi
1:55 am50 °FFog.No wind100%30.00 "Hg5 mi
1:15 am52 °FClear.No wind94%30.00 "Hg10 mi
12:55 am52 °FClear.No wind100%30.00 "Hg10 mi
12:15 am52 °FClear.No wind100%30.00 "Hg10 mi
11:55 pm
Mon, Jun 17
52 °FClear.No wind100%30.00 "Hg10 mi
11:15 pm52 °FClear.No wind100%30.01 "Hg10 mi
10:55 pm52 °FClear.No wind100%30.02 "Hg10 mi
10:15 pm54 °FClear.No wind100%30.02 "Hg10 mi
9:55 pm54 °FClear.3 mph100%30.01 "Hg10 mi
9:35 pm55 °FClear.3 mph94%30.01 "Hg10 mi
9:15 pm55 °FClear.No wind94%30.00 "Hg10 mi
8:55 pm57 °FClear.No wind88%30.00 "Hg10 mi
8:35 pm59 °FClear.3 mph88%30.00 "Hg10 mi
8:15 pm61 °FSunny.5 mph83%30.00 "Hg10 mi
7:55 pm61 °FSunny.5 mph83%30.00 "Hg10 mi
7:15 pm64 °FSunny.5 mph73%30.00 "Hg10 mi
6:55 pm64 °FSunny.5 mph73%29.99 "Hg10 mi
6:15 pm66 °FSunny.5 mph64%29.99 "Hg10 mi
5:55 pm66 °FSunny.7 mph68%29.99 "Hg10 mi
5:15 pm68 °FSunny.9 mph64%29.99 "Hg10 mi
4:55 pm68 °FSunny.7 mph64%30.00 "Hg10 mi
4:35 pm68 °FSunny.8 mph64%30.00 "Hg10 mi
4:15 pm68 °FSunny.8 mph64%30.00 "Hg10 mi
Weather by CustomWeather, © 2019

See weather overview